Weather History for KP68 - January, 2014

Change the Weather History Date:

Sunday, January 12, 2014

  Actual Average Record
Temperature  
Mean Temperature 33 °F 23 °F  
Max Temperature 40 °F 37 °F 56 °F (1996)
Min Temperature 25 °F 10 °F -20 °F (2013)
Degree Days  
Heating Degree Days 32 42  
Month to date heating degree days 401 504  
Since 1 July heating degree days 3352 3510  
Cooling Degree Days 0 0  
Month to date cooling degree days 0 0  
Year to date cooling degree days 0 0  
Moisture  
Dew Point 17 °F    
Average Humidity 54    
Maximum Humidity 75    
Minimum Humidity 33    
Precipitation  
Precipitation 0.03 in 0.03 in 0.23 in (2015)
Month to date precipitation 0.05 0.28  
Year to date precipitation 0.05 0.28  
Sea Level Pressure  
Sea Level Pressure 30.24 in    
Wind  
Wind Speed 10 mph (NW)    
Max Wind Speed 31 mph    
Max Gust Speed 44 mph    
T = Trace of Precipitation, MM = Missing Value Source: NWS Daily Summary

Daily Weather History Graph

Daily Weather History Graph

Search for Another Location

Airport or City:

Trip Planner

Search our weather history database for the weather conditions in past years. The results will help you decide how hot, cold, wet, or windy it might be!

Date:

Astronomy

Jan. 12, 2014 Rise Set
Actual Time 7:03 AM PST 4:41 PM PST
Civil Twilight 6:34 AM PST 5:10 PM PST
Nautical Twilight 6:00 AM PST 5:44 PM PST
Astronomical Twilight 5:28 AM PST 6:16 PM PST
Moon 2:12 PM PST (1/12) 4:06 AM PST (1/12)
Length of Visible Light 10h 36m
Length of Day
9h 37m
Waxing Gibbous, 90% of the Moon is Illuminated
Jan 12
Waxing Gibbous
Jan 15
Full
Jan 23
Last Quarter
Jan 30
New
Feb 6
First Quarter

Hourly Weather History & Observations

Time (PST) Temp. Windchill Dew Point Humidity Pressure Visibility Wind Dir Wind Speed Gust Speed Precip Events Conditions
12:53 AM 35.1 °F 24.8 °F 26.1 °F 70% 29.97 in - WNW 17.3 mph 29.9 mph N/A   Unknown
1:53 AM 33.1 °F 23.0 °F 21.9 °F 64% 30.00 in - WNW 15.0 mph 27.6 mph 0.03 in   Unknown
2:53 AM 32.0 °F 19.8 °F 18.0 °F 56% 30.04 in - WNW 20.7 mph 31.1 mph N/A   Unknown
3:53 AM 30.9 °F 19.4 °F 17.1 °F 57% 30.04 in - WNW 17.3 mph 26.5 mph N/A   Unknown
4:53 AM 30.0 °F 23.2 °F 18.0 °F 61% 30.08 in - North 6.9 mph - N/A   Unknown
5:53 AM 28.0 °F 21.7 °F 17.1 °F 63% 30.13 in - Variable 5.8 mph - N/A   Unknown
6:53 AM 26.1 °F 17.6 °F 16.0 °F 66% 30.16 in - NW 8.1 mph - N/A   Unknown
7:53 AM 30.9 °F 22.2 °F 15.1 °F 52% 30.18 in - WNW 10.4 mph - N/A   Unknown
8:53 AM 33.1 °F 23.0 °F 15.1 °F 48% 30.19 in - WNW 15.0 mph - N/A   Unknown
9:53 AM 34.0 °F 23.8 °F 14.0 °F 44% 30.22 in - West 16.1 mph 21.9 mph N/A   Unknown
10:53 AM 36.0 °F 26.3 °F 15.1 °F 43% 30.22 in - WNW 16.1 mph 19.6 mph N/A   Unknown
11:53 AM 37.9 °F 30.0 °F 14.0 °F 38% 30.20 in - NW 12.7 mph - N/A   Unknown
12:53 PM 39.0 °F 31.8 °F 12.9 °F 34% 30.21 in - NNW 11.5 mph - N/A   Unknown
1:53 PM 39.0 °F 32.8 °F 12.9 °F 34% 30.23 in - NNW 9.2 mph - N/A   Unknown
2:53 PM 39.0 °F 34.8 °F 16.0 °F 39% 30.25 in - NE 5.8 mph - N/A   Unknown
3:53 PM 37.0 °F 29.3 °F 18.0 °F 46% 30.30 in - NW 11.5 mph - N/A   Unknown
4:53 PM 35.1 °F - 15.1 °F 44% 30.32 in - Calm Calm - N/A   Unknown
5:53 PM 32.0 °F 27.5 °F 17.1 °F 54% 30.38 in - NW 4.6 mph - N/A   Unknown
6:53 PM 28.9 °F 23.9 °F 18.0 °F 64% 30.40 in - NNW 4.6 mph - N/A   Unknown
7:53 PM 26.1 °F 19.4 °F 18.0 °F 71% 30.43 in - ESE 5.8 mph - N/A   Unknown
8:53 PM 26.1 °F 18.4 °F 19.9 °F 78% 30.45 in - SE 6.9 mph - N/A   Unknown
9:53 PM 30.0 °F 25.2 °F 19.0 °F 64% 30.45 in - South 4.6 mph - N/A   Unknown
10:53 PM 30.0 °F 25.2 °F 19.0 °F 64% 30.44 in - South 4.6 mph - N/A   Unknown
11:53 PM 26.1 °F - 19.0 °F 75% 30.45 in - Calm Calm - N/A   Unknown